Home > Weather > Thiès > Past weeks

Flag for Senegal Past Weather in Thiès, Senegal — Yesterday and Last 2 Weeks

Now
77 °F

Passing clouds.


Feels Like: 78 °F
Forecast: 72 / 95 °F
Wind: 6 mph from North

Location: Dakar / Yoff

Current Time: Jun 30, 2016 at 1:50:43 AM

Latest Report: Jun 30, 2016 at 1:30 AM


Visibility: N/A

Pressure: 29.98 "Hg

Humidity: 83%

Dew Point: 72 °F

Location of ThièsLocation

Past Weather in Thiès — Graph

°F

Thiès Temperature Yesterday

Maximum temperature yesterday: 82 °F (at 1:00 PM)
Minimum temperature yesterday: 75 °F (at 12:00 AM)
Average temperature yesterday: 78 °F

High & Low Weather Summary for the Past Weeks

 TemperatureHumidityPressure
High95 °F (Jun 26, 8:00 AM)94% (Jun 15, 4:30 AM)30.07 "Hg (Jun 15, 4:30 AM)
Low70 °F (Jun 15, 4:30 AM)50% (Jun 26, 8:00 AM)29.80 "Hg (Jun 21, 4:30 PM)
Average78 °F77%29.95 "Hg
* Reported Jun 15 12:00 AM — Jun 30 12:30 AM, Thiès, Weather by CustomWeather, © 2016

Note: Actual official high and low records may vary slightly from our data, if they occured in-between our weather recording intervals... More about our weather records

Advertising

Thiès Weather History for the Previous 24 Hours

Scroll right to see more
 ConditionsComfort  
Time TempWeatherWind HumidityBarometerVisibility
12:30 AM
Thu, Jun 30
77 °FPassing clouds.8 mph83%29.98 "HgN/A
12:00 AM77 °FPassing clouds.9 mph83%29.98 "HgN/A
11:30 PM
Wed, Jun 29
77 °FPassing clouds.10 mph83%29.95 "HgN/A
11:00 PM77 °FPassing clouds.9 mph83%29.92 "HgN/A
10:30 PM77 °FPassing clouds.9 mph83%29.92 "HgN/A
10:00 PM77 °FPassing clouds.9 mph83%29.92 "HgN/A
9:30 PM77 °FPassing clouds.9 mph83%29.92 "HgN/A
9:00 PM77 °FPassing clouds.9 mph83%29.98 "HgN/A
8:30 PM77 °FPassing clouds.8 mph83%29.92 "HgN/A
8:00 PM77 °FPassing clouds.8 mph83%29.92 "HgN/A
6:30 PM81 °FPassing clouds.13 mph74%29.89 "HgN/A
6:00 PM81 °FPassing clouds.12 mph74%29.89 "HgN/A
5:30 PM81 °FPassing clouds.12 mph74%29.89 "HgN/A
5:00 PM81 °FThunderstorms. Passing clouds.13 mph74%29.89 "HgN/A
4:30 PM82 °FPassing clouds.13 mph70%29.89 "HgN/A
3:30 PM82 °FScattered clouds.13 mph70%29.92 "HgN/A
3:00 PM82 °FScattered clouds.9 mph70%29.92 "HgN/A
2:30 PM82 °FScattered clouds.10 mph70%29.92 "HgN/A
2:00 PM82 °FScattered clouds.9 mph70%29.95 "HgN/A
1:30 PM82 °FScattered clouds.7 mph70%29.95 "HgN/A
1:00 PM82 °FScattered clouds.9 mph70%29.95 "HgN/A
12:30 PM81 °FScattered clouds.10 mph74%29.95 "HgN/A
12:00 PM81 °FScattered clouds.8 mph74%29.95 "HgN/A
11:30 AM81 °FScattered clouds.8 mph74%29.95 "HgN/A
11:00 AM81 °FScattered clouds.No wind74%29.98 "HgN/A
10:30 AM79 °FScattered clouds.8 mph79%29.98 "HgN/A
10:00 AM79 °FScattered clouds.9 mph79%29.95 "HgN/A
9:30 AM79 °FScattered clouds.9 mph79%29.95 "HgN/A
9:00 AM77 °FScattered clouds.9 mph83%29.95 "HgN/A
8:30 AM77 °FScattered clouds.9 mph83%29.95 "HgN/A
8:00 AM77 °FScattered clouds.7 mph83%29.92 "HgN/A
7:30 AM75 °FScattered clouds.6 mph83%29.92 "HgN/A
7:00 AM75 °FScattered clouds.5 mph83%29.95 "HgN/A
6:30 AM75 °FPassing clouds.3 mph83%29.92 "HgN/A
6:00 AM75 °FPassing clouds.3 mph83%29.92 "HgN/A
5:30 AM75 °FPassing clouds.5 mph83%29.92 "HgN/A
5:00 AM75 °FPassing clouds.5 mph89%29.92 "HgN/A
4:30 AM75 °FPassing clouds.5 mph83%29.95 "HgN/A
4:00 AM75 °FPassing clouds.3 mph83%29.95 "HgN/A
3:30 AM75 °FPassing clouds.3 mph83%29.95 "HgN/A
3:00 AM75 °FPassing clouds.5 mph83%29.95 "HgN/A
2:30 AM75 °FPassing clouds.2 mph83%29.95 "HgN/A
2:00 AM75 °FPassing clouds.3 mph83%29.95 "HgN/A
1:30 AM75 °FPassing clouds.1 mph83%29.95 "HgN/A
1:00 AM75 °FPassing clouds.3 mph83%29.95 "HgN/A
Weather by CustomWeather, © 2016

See weather overviewHow to use our weather pages